Weather History for Andrews, NC

Change the Weather History Date:

Friday, June 7, 2013

  Actual Average (KTYS) Record (KTYS)
Temperature  
Mean Temperature 71 °F 73 °F  
Max Temperature 79 °F 84 °F 99 °F (1933)
Min Temperature 63 °F 63 °F 47 °F (1998)
Degree Days  
Heating Degree Days 0 0  
Month to date heating degree days 0  
Since 1 June heating degree days 0  
Since 1 July heating degree days 3633  
Cooling Degree Days 6 8  
Month to date cooling degree days 53  
Year to date cooling degree days 215  
Since 1 June cooling degree days 53  
Growing Degree Days 21 (Base 50)    
Moisture  
Dew Point 65 °F    
Average Humidity 87    
Maximum Humidity 99    
Minimum Humidity 58    
Precipitation  
Precipitation 0.25 in 0.12 in 1.62 in (1871)
Month to date precipitation 0.86  
Year to date precipitation 22.30  
Snow  
Snow 0.00 in 0.00 in - ()
Month to date snowfall 0.0  
Since 1 June snowfall 0.0  
Since 1 July snowfall 6.5  
Snow Depth -    
Sea Level Pressure  
Sea Level Pressure 29.80 in    
Wind  
Wind Speed 1 mph (NNW)    
Max Wind Speed 10 mph    
Max Gust Speed -    
Visibility 10 miles    
Events Rain    
T = Trace of Precipitation, MM = Missing Value Source: NWS Daily Summary

Daily Weather History Graph

Daily Weather History Graph

Search for Another Location

Airport:

Trip Planner

Search our weather history database for the weather conditions in past years. The results will help you decide how hot, cold, wet, or windy it might be!

Date:

Astronomy

Jun. 07, 2013 Rise Set
Actual Time 6:20 AM EDT 8:48 PM EDT
Civil Twilight 5:51 AM EDT 9:17 PM EDT
Nautical Twilight 5:14 AM EDT 9:54 PM EDT
Astronomical Twilight 4:34 AM EDT 10:34 PM EDT
Moon 5:40 AM EDT (6/7) 8:03 PM EDT (6/7)
Length of Visible Light 15h 26m
Length of Day
14h 27m
Waning Crescent, 1% of the Moon is Illuminated
Jun 7
Waning Crescent
Jun 8
New
Jun 16
First Quarter
Jun 23
Full
Jun 30
Last Quarter

Hourly Weather History & Observations

Time (EDT) Temp. Dew Point Humidity Pressure Visibility Wind Dir Wind Speed Gust Speed Precip Events Conditions
12:15 AM 66.4 °F 64.9 °F 95% 29.83 in 10.0 mi Calm Calm - N/A   Unknown
12:35 AM 66.4 °F 65.3 °F 96% 29.82 in 10.0 mi Calm Calm - N/A   Unknown
12:55 AM 66.2 °F 65.3 °F 97% 29.81 in 10.0 mi Calm Calm - N/A   Unknown
1:15 AM 66.2 °F 65.1 °F 96% 29.80 in 10.0 mi Calm Calm - N/A   Unknown
1:35 AM 65.8 °F 64.8 °F 96% 29.80 in 10.0 mi North 3.5 mph - N/A   Unknown
1:55 AM 65.8 °F 65.1 °F 98% 29.80 in 10.0 mi Calm Calm - N/A   Unknown
2:15 AM 65.8 °F 65.3 °F 98% 29.80 in 10.0 mi Calm Calm - N/A   Unknown
2:35 AM 65.8 °F 64.8 °F 96% 29.79 in 10.0 mi Calm Calm - N/A   Unknown
2:55 AM 65.8 °F 64.9 °F 97% 29.78 in 10.0 mi Calm Calm - N/A   Unknown
3:15 AM 66.2 °F 65.5 °F 98% 29.77 in 10.0 mi Calm Calm - N/A   Unknown
3:35 AM 66.2 °F 65.3 °F 97% 29.76 in 10.0 mi Calm Calm - N/A   Unknown
3:55 AM 65.8 °F 65.3 °F 98% 29.76 in 10.0 mi Calm Calm - N/A   Unknown
4:15 AM 65.7 °F 65.1 °F 98% 29.76 in 10.0 mi Calm Calm - N/A   Unknown
4:35 AM 65.5 °F 64.9 °F 98% 29.75 in 10.0 mi Calm Calm - N/A   Unknown
4:55 AM 65.3 °F 64.6 °F 98% 29.75 in 10.0 mi NE 3.5 mph - N/A   Unknown
5:15 AM 65.3 °F 64.4 °F 97% 29.74 in 10.0 mi Calm Calm - N/A   Unknown
5:35 AM 64.9 °F 63.9 °F 96% 29.74 in 10.0 mi Calm Calm - N/A   Unknown
5:55 AM 64.8 °F 63.5 °F 96% 29.75 in 10.0 mi Calm Calm - N/A   Unknown
6:15 AM 64.4 °F 63.5 °F 97% 29.75 in 10.0 mi Calm Calm - N/A   Unknown
6:35 AM 64.4 °F 63.9 °F 98% 29.75 in 10.0 mi Calm Calm - N/A   Unknown
6:55 AM 64.9 °F 64.6 °F 99% 29.76 in 10.0 mi Calm Calm - N/A   Unknown
7:15 AM 65.3 °F 64.6 °F 98% 29.76 in 10.0 mi Calm Calm - N/A   Unknown
7:35 AM 65.7 °F 64.9 °F 98% 29.77 in 10.0 mi West 3.5 mph - N/A   Unknown
7:55 AM 65.7 °F 64.8 °F 97% 29.77 in 10.0 mi Calm Calm - N/A   Unknown
8:15 AM 66.2 °F 65.3 °F 97% 29.77 in 10.0 mi Calm Calm - N/A   Unknown
8:35 AM 66.4 °F 64.9 °F 95% 29.77 in 10.0 mi Calm Calm - N/A   Unknown
8:55 AM 67.1 °F 65.1 °F 93% 29.78 in 10.0 mi Calm Calm - N/A   Unknown
9:15 AM 67.1 °F 65.3 °F 94% 29.78 in 10.0 mi Calm Calm - N/A   Unknown
9:35 AM 68.0 °F 65.1 °F 90% 29.78 in 10.0 mi Calm Calm - N/A   Unknown
9:55 AM 68.9 °F 65.7 °F 89% 29.78 in 10.0 mi Calm Calm - N/A   Unknown
10:15 AM 70.2 °F 66.2 °F 87% 29.79 in 10.0 mi Calm Calm - N/A   Unknown
10:35 AM 72.1 °F 66.0 °F 81% 29.79 in 10.0 mi Calm Calm - N/A   Unknown
10:55 AM 73.9 °F 66.2 °F 77% 29.78 in 10.0 mi Calm Calm - N/A   Unknown
11:15 AM 73.6 °F 65.5 °F 76% 29.78 in 10.0 mi West 3.5 mph - N/A   Unknown
11:35 AM 74.5 °F 66.0 °F 75% 29.78 in 10.0 mi WNW 3.5 mph - N/A   Unknown
11:55 AM 76.5 °F 64.6 °F 67% 29.78 in 10.0 mi Calm Calm - N/A   Unknown
12:15 PM 76.3 °F 66.0 °F 70% 29.79 in 10.0 mi Calm Calm - N/A   Unknown
12:35 PM 76.5 °F 65.5 °F 69% 29.79 in 10.0 mi West 4.6 mph - N/A   Unknown
12:55 PM 76.6 °F 67.1 °F 72% 29.79 in 10.0 mi WSW 6.9 mph - N/A   Unknown
1:15 PM 76.6 °F 66.4 °F 70% 29.79 in 10.0 mi WSW 8.1 mph - N/A   Unknown
1:35 PM 79.3 °F 65.7 °F 63% 29.78 in 10.0 mi SW 3.5 mph - N/A   Unknown
1:55 PM 78.6 °F 63.0 °F 59% 29.77 in 10.0 mi Calm Calm - N/A   Unknown
2:15 PM 77.9 °F 62.1 °F 58% 29.77 in 10.0 mi Calm Calm - N/A   Unknown
2:35 PM 75.4 °F 66.7 °F 74% 29.77 in 10.0 mi North 6.9 mph - N/A   Unknown
2:55 PM 72.5 °F 66.0 °F 80% 29.77 in 10.0 mi ESE 8.1 mph - 0.02 in   Unknown
3:15 PM 71.8 °F 66.0 °F 82% 29.77 in 10.0 mi NE 8.1 mph - N/A   Unknown
3:35 PM 72.0 °F 64.9 °F 78% 29.77 in 10.0 mi North 3.5 mph - N/A   Unknown
3:55 PM 73.6 °F 65.3 °F 75% 29.77 in 10.0 mi ENE 5.8 mph - N/A   Unknown
4:15 PM 73.6 °F 64.8 °F 74% 29.77 in 10.0 mi East 3.5 mph - N/A   Unknown
4:35 PM 75.7 °F 65.5 °F 70% 29.76 in 10.0 mi NE 3.5 mph - N/A   Unknown
4:55 PM 75.9 °F 65.1 °F 69% 29.77 in 10.0 mi Calm Calm - N/A   Unknown
5:15 PM 76.8 °F 63.7 °F 64% 29.77 in 10.0 mi Calm Calm - N/A   Unknown
5:35 PM 75.2 °F 67.3 °F 76% 29.78 in 10.0 mi South 3.5 mph - N/A   Unknown
5:55 PM 74.7 °F 67.1 °F 77% 29.79 in 10.0 mi Calm Calm - N/A   Unknown
6:15 PM 74.5 °F 67.5 °F 79% 29.79 in 10.0 mi Calm Calm - N/A   Unknown
6:35 PM 71.4 °F 65.3 °F 81% 29.80 in 7.0 mi North 10.4 mph - 0.01 in Rain Rain
6:55 PM 66.6 °F 60.3 °F 80% 29.83 in 7.0 mi Calm Calm - 0.14 in Rain Light Rain
7:15 PM 64.6 °F 61.7 °F 90% 29.85 in 10.0 mi East 5.8 mph - 0.01 in Rain Light Rain
7:35 PM 64.4 °F 61.7 °F 91% 29.86 in 7.0 mi NNW 4.6 mph - 0.04 in Rain Light Rain
7:55 PM 64.2 °F 62.6 °F 94% 29.86 in 7.0 mi Calm Calm - 0.06 in Rain Rain
8:15 PM 64.4 °F 63.0 °F 95% 29.85 in 7.0 mi Calm Calm - 0.01 in Rain Light Rain
8:35 PM 64.4 °F 63.3 °F 96% 29.85 in 7.0 mi Calm Calm - 0.02 in Rain Light Rain
8:55 PM 64.0 °F 62.8 °F 96% 29.86 in 10.0 mi Calm Calm - 0.02 in Rain Light Rain
9:15 PM 63.9 °F 62.1 °F 94% 29.86 in 10.0 mi Calm Calm - N/A Rain Rain
9:35 PM 63.9 °F 61.9 °F 93% 29.86 in 10.0 mi Calm Calm - N/A Rain Light Rain
9:55 PM 63.5 °F 62.1 °F 95% 29.87 in 10.0 mi Calm Calm - N/A   Light Drizzle
10:15 PM 63.5 °F 62.6 °F 97% 29.88 in 7.0 mi Calm Calm - 0.01 in   Unknown
10:35 PM 63.1 °F 61.9 °F 96% 29.89 in 10.0 mi Calm Calm - 0.01 in   Unknown
10:55 PM 63.5 °F 61.9 °F 94% 29.89 in 10.0 mi Calm Calm - 0.01 in   Unknown
11:15 PM 63.5 °F 62.6 °F 97% 29.91 in 7.0 mi Calm Calm - N/A   Unknown
11:35 PM 63.1 °F 62.6 °F 98% 29.91 in 7.0 mi Calm Calm - N/A   Unknown
11:55 PM 63.0 °F 62.2 °F 97% 29.91 in 7.0 mi Calm Calm - N/A   Unknown